When you browse on this site, cookies collect data to enhance your experience and personalize the content and advertising you see.
Visit our Privacy Policy to learn more. By continuing to use the site, you agree to this use of cookies and data.
EN

Hourly Weather Stolac

Today, 13 August, Thursday

Time Temperature Precipitation Wind Pressure Humidity
00:00 +23°C° 0 mm 2 mps 740 mmHg 80%
01:00 +21°C° 0 mm 2 mps 740 mmHg 80%
02:00 +21°C° 0 mm 2 mps 740 mmHg 81%
03:00 +21°C° 0 mm 2 mps 740 mmHg 81%
04:00 +20°C° 0 mm 2 mps 739 mmHg 81%
05:00 +22°C° 0 mm 1 mps 740 mmHg 78%
06:00 +24°C° 0 mm 1 mps 740 mmHg 76%
07:00 +25°C° 0 mm 1 mps 740 mmHg 73%
08:00 +27°C° 0 mm 1 mps 740 mmHg 64%
09:00 +29°C° 0 mm 1 mps 740 mmHg 56%
10:00 +30°C° 0 mm 0 mps 740 mmHg 48%
11:00 +32°C° 0 mm 1 mps 740 mmHg 45%
12:00 +33°C° 0 mm 1 mps 740 mmHg 43%
13:00 +34°C° 0 mm 2 mps 740 mmHg 41%
14:00 +34°C° 0 mm 2 mps 739 mmHg 43%
15:00 +32°C° 0 mm 2 mps 739 mmHg 46%
16:00 +32°C° 0 mm 2 mps 739 mmHg 49%
17:00 +30°C° 0 mm 2 mps 739 mmHg 57%
18:00 +28°C° 0 mm 1 mps 739 mmHg 65%
19:00 +24°C° 0 mm 0 mps 738 mmHg 73%
20:00 +25°C° 0 mm 1 mps 738 mmHg 73%
21:00 +25°C° 0 mm 1 mps 739 mmHg 73%
22:00 +25°C° 0 mm 1 mps 739 mmHg 74%
23:00 +24°C° 0 mm 1 mps 739 mmHg 74%

Tomorrow, 14 August, Friday

Time Temperature Precipitation Wind Pressure Humidity
00:00 +24°C° 0 mm 1 mps 738 mmHg 73%
01:00 +24°C° 0 mm 1 mps 738 mmHg 73%
02:00 +24°C° 0 mm 1 mps 738 mmHg 73%
03:00 +23°C° 0 mm 1 mps 738 mmHg 74%
04:00 +23°C° 0 mm 1 mps 738 mmHg 74%
05:00 +24°C° 0 mm 1 mps 738 mmHg 71%
06:00 +26°C° 0 mm 1 mps 738 mmHg 67%
07:00 +27°C° 0 mm 1 mps 738 mmHg 64%
08:00 +29°C° 0 mm 1 mps 738 mmHg 57%
09:00 +31°C° 0 mm 1 mps 738 mmHg 51%
10:00 +33°C° 0 mm 1 mps 738 mmHg 44%
11:00 +34°C° 0 mm 2 mps 738 mmHg 43%
12:00 +35°C° 0 mm 2 mps 737 mmHg 41%
13:00 +35°C° 0 mm 3 mps 737 mmHg 40%
14:00 +35°C° 0 mm 3 mps 737 mmHg 41%
15:00 +34°C° 0 mm 3 mps 736 mmHg 42%
16:00 +34°C° 0 mm 3 mps 736 mmHg 44%
17:00 +31°C° 0 mm 2 mps 736 mmHg 50%
18:00 +29°C° 0 mm 2 mps 736 mmHg 55%
19:00 +26°C° 0 mm 1 mps 736 mmHg 61%
20:00 +26°C° 0 mm 1 mps 736 mmHg 61%
21:00 +26°C° 0 mm 1 mps 737 mmHg 60%
22:00 +25°C° 0 mm 1 mps 737 mmHg 59%
23:00 +25°C° 0 mm 1 mps 737 mmHg 60%

Day after tomorrow, 15 August, Saturday

Time Temperature Precipitation Wind Pressure Humidity
00:00 +24°C° 0 mm 1 mps 736 mmHg 60%
01:00 +24°C° 0 mm 1 mps 736 mmHg 61%
02:00 +24°C° 0 mm 1 mps 736 mmHg 62%
03:00 +23°C° 0 mm 1 mps 736 mmHg 62%
04:00 +23°C° 0 mm 1 mps 736 mmHg 63%
05:00 +24°C° 0.1 mm 1 mps 736 mmHg 62%
06:00 +25°C° 0.1 mm 1 mps 736 mmHg 62%
07:00 +27°C° 0.1 mm 1 mps 736 mmHg 61%
08:00 +28°C° 0.1 mm 1 mps 736 mmHg 55%
09:00 +30°C° 0.1 mm 1 mps 737 mmHg 50%
10:00 +32°C° 0.1 mm 1 mps 737 mmHg 44%
11:00 +32°C° 0.1 mm 2 mps 737 mmHg 42%
12:00 +34°C° 0.1 mm 2 mps 737 mmHg 41%
13:00 +34°C° 0.1 mm 3 mps 737 mmHg 39%
14:00 +34°C° 0.1 mm 3 mps 736 mmHg 42%
15:00 +33°C° 0.1 mm 3 mps 736 mmHg 45%
16:00 +31°C° 0.1 mm 3 mps 736 mmHg 48%
17:00 +29°C° 0.1 mm 2 mps 736 mmHg 55%
18:00 +27°C° 0.1 mm 2 mps 736 mmHg 63%
19:00 +25°C° 0.1 mm 1 mps 736 mmHg 70%
20:00 +25°C° 0 mm 1 mps 736 mmHg 71%
21:00 +24°C° 0 mm 1 mps 736 mmHg 72%
22:00 +23°C° 0 mm 1 mps 736 mmHg 72%
23:00 +23°C° 0 mm 1 mps 736 mmHg 72%

16 August, Sunday

Time Temperature Precipitation Wind Pressure Humidity
00:00 +23°C° 0 mm 1 mps 736 mmHg 72%
01:00 +22°C° 0 mm 1 mps 736 mmHg 72%
02:00 +22°C° 0 mm 1 mps 736 mmHg 72%
03:00 +22°C° 0 mm 1 mps 736 mmHg 72%
04:00 +22°C° 0 mm 1 mps 736 mmHg 72%
05:00 +23°C° 0 mm 1 mps 736 mmHg 69%
06:00 +24°C° 0 mm 1 mps 736 mmHg 66%
07:00 +25°C° 0 mm 1 mps 736 mmHg 63%
08:00 +27°C° 0 mm 1 mps 737 mmHg 57%
09:00 +29°C° 0 mm 1 mps 737 mmHg 51%
10:00 +32°C° 0 mm 1 mps 737 mmHg 45%
11:00 +32°C° 0 mm 1 mps 737 mmHg 43%
12:00 +33°C° 0 mm 1 mps 737 mmHg 42%
13:00 +34°C° 0 mm 2 mps 737 mmHg 41%
14:00 +34°C° 0 mm 2 mps 737 mmHg 43%
15:00 +32°C° 0 mm 2 mps 737 mmHg 46%
16:00 +32°C° 0 mm 2 mps 736 mmHg 49%
17:00 +30°C° 0 mm 2 mps 736 mmHg 56%
18:00 +27°C° 0 mm 1 mps 736 mmHg 62%
19:00 +23°C° 0 mm 0 mps 737 mmHg 69%
20:00 +25°C° 0 mm 1 mps 737 mmHg 70%
21:00 +25°C° 0 mm 1 mps 737 mmHg 71%
22:00 +24°C° 0 mm 1 mps 737 mmHg 71%
23:00 +24°C° 0 mm 1 mps 737 mmHg 71%

17 August, Monday

Time Temperature Precipitation Wind Pressure Humidity
00:00 +24°C° 0 mm 1 mps 737 mmHg 71%
01:00 +23°C° 0 mm 1 mps 737 mmHg 71%
02:00 +23°C° 0 mm 1 mps 737 mmHg 71%
03:00 +23°C° 0 mm 1 mps 737 mmHg 71%
04:00 +23°C° 0 mm 1 mps 737 mmHg 71%
05:00 +24°C° 0 mm 1 mps 737 mmHg 68%
06:00 +25°C° 0 mm 1 mps 737 mmHg 65%
07:00 +27°C° 0 mm 1 mps 737 mmHg 62%
08:00 +28°C° 0 mm 1 mps 737 mmHg 57%
09:00 +30°C° 0 mm 1 mps 737 mmHg 51%
10:00 +32°C° 0 mm 2 mps 737 mmHg 46%
11:00 +32°C° 0 mm 2 mps 737 mmHg 45%
12:00 +34°C° 0 mm 3 mps 737 mmHg 43%
13:00 +34°C° 0 mm 3 mps 737 mmHg 41%
14:00 +34°C° 0 mm 3 mps 736 mmHg 43%
15:00 +34°C° 0 mm 3 mps 736 mmHg 44%
16:00 +32°C° 0 mm 2 mps 735 mmHg 46%
17:00 +30°C° 0 mm 2 mps 735 mmHg 53%
18:00 +28°C° 0 mm 1 mps 735 mmHg 60%
19:00 +24°C° 0 mm 0 mps 735 mmHg 68%
20:00 +23°C° 0 mm 0 mps 735 mmHg 68%
21:00 +25°C° 0 mm 1 mps 735 mmHg 69%
22:00 +24°C° 0 mm 1 mps 736 mmHg 70%
23:00 +24°C° 0 mm 1 mps 735 mmHg 71%

18 August, Tuesday

Time Temperature Precipitation Wind Pressure Humidity
00:00 +23°C° 0 mm 1 mps 735 mmHg 71%
01:00 +23°C° 0 mm 1 mps 735 mmHg 72%
02:00 +23°C° 0 mm 1 mps 735 mmHg 72%
03:00 +23°C° 0 mm 2 mps 734 mmHg 71%
04:00 +23°C° 0 mm 2 mps 734 mmHg 71%
05:00 +24°C° 0.1 mm 1 mps 734 mmHg 69%
06:00 +25°C° 0.1 mm 1 mps 734 mmHg 66%
07:00 +26°C° 0.1 mm 1 mps 734 mmHg 64%
08:00 +28°C° 0.1 mm 2 mps 734 mmHg 58%
09:00 +29°C° 0.1 mm 2 mps 734 mmHg 52%
10:00 +31°C° 0.1 mm 2 mps 734 mmHg 46%
11:00 +31°C° 0.1 mm 3 mps 734 mmHg 46%
12:00 +33°C° 0.1 mm 3 mps 734 mmHg 46%
13:00 +33°C° 0.1 mm 4 mps 734 mmHg 46%
14:00 +32°C° 0.1 mm 4 mps 733 mmHg 47%
15:00 +31°C° 0.1 mm 3 mps 733 mmHg 48%
16:00 +31°C° 0.1 mm 3 mps 733 mmHg 50%
17:00 +28°C° 0 mm 2 mps 733 mmHg 58%
18:00 +26°C° 0 mm 1 mps 733 mmHg 66%
19:00 +22°C° 0 mm 0 mps 733 mmHg 74%
20:00 +22°C° 0 mm 0 mps 733 mmHg 75%
21:00 +23°C° 0 mm 1 mps 734 mmHg 76%
22:00 +23°C° 0 mm 1 mps 734 mmHg 76%
23:00 +23°C° 0 mm 1 mps 734 mmHg 77%
Show more